This demonstration page uses our WeatherBlox Daily Observations layout. Learn more.

Left ArrowRight Arrow

40.97296, -117.73568

Hourly Observations for May 22, 2022

Temp ( °F °C ) Dew Point ( °F °C ) Humidity (%) Winds ( mph kmh ) Pressure ( in mb ) Visibility ( mi km ) Precip ( " mm )
12:56 am 00:56 Clear 38 3.3 15 -9.4 39 39 SE 6 9 30.03 1017 10 16 0.00 0.00
1:56 am 01:56 Clear 37 2.8 18 -7.8 46 46 ESE 7 11 30.02 1017 10 16 0.00 0.00
2:56 am 02:56 Clear 29 -1.7 14 -10 54 54 SSE 6 9 30.05 1018 10 16 0.00 0.00
3:56 am 03:56 Clear 29 -1.7 12 -11.1 49 49 S 3 6 30.04 1017 10 16 0.00 0.00
4:56 am 04:56 Clear 27 -2.8 12 -11.1 53 53 SSE 7 11 30.05 1018 10 16 0.00 0.00
5:56 am 05:56 Sunny 27 -2.8 14 -10 58 58 Calm 30.06 1018 10 16 0.00 0.00
6:56 am 06:56 Sunny 38 3.3 15 -9.4 39 39 Calm 30.06 1018 10 16 0.00 0.00
7:56 am 07:56 Sunny 51 10.6 23 -5 33 33 VRB 5 7 30.05 1018 10 16 0.00 0.00
8:56 am 08:56 Sunny 56 13.3 27 -2.8 33 33 NE 10 17 30.06 1018 10 16 0.00 0.00
9:56 am 09:56 Sunny 59 15 27 -2.8 29 29 ENE 15 24 30.07 1018 10 16 0.00 0.00
10:56 am 10:56 Sunny 63 17.2 28 -2.2 27 27 ENE 8 13 30.05 1018 10 16 0.00 0.00
11:56 am 11:56 Sunny 64 17.8 28 -2.2 26 26 VRB 7 11 30.07 1018 10 16 0.00 0.00
12:56 pm 12:56 Sunny 68 20 22 -5.6 17 17 N 14 22 30.06 1018 10 16 0.00 0.00
1:56 pm 13:56 Sunny 68 20 23 -5 18 18 NNW 9 15 30.05 1018 10 16 0.00 0.00
2:56 pm 14:56 Mostly Sunny 70 21.1 24 -4.4 18 18 N 14 22 30.07 1018 10 16 0.00 0.00
3:56 pm 15:56 Sunny 69 20.6 25 -3.9 19 19 N 15 24 30.07 1018 10 16 0.00 0.00
4:56 pm 16:56 Sunny 69 20.6 25 -3.9 19 19 N 18 30 30.07 1018 10 16 0.00 0.00
5:56 pm 17:56 Sunny 68 20 23 -5 18 18 N 8 13 30.08 1019 10 16 0.00 0.00
6:56 pm 18:56 Sunny 66 18.9 20 -6.7 17 17 N 5 7 30.05 1018 10 16 0.00 0.00
7:56 pm 19:56 Sunny 62 16.7 19 -7.2 19 19 NNE 10 17 30.05 1018 10 16 0.00 0.00
8:56 pm 20:56 Clear 58 14.4 21 -6.1 24 24 NE 10 17 30.06 1018 10 16 0.00 0.00
9:56 pm 21:56 Clear 56 13.3 19 -7.2 24 24 NE 12 19 30.07 1018 10 16 0.00 0.00
10:56 pm 22:56 Clear 55 12.8 19 -7.2 24 24 NE 14 22 30.06 1018 10 16 0.00 0.00
11:56 pm 23:56 Clear 53 11.7 19 -7.2 26 26 NE 17 28 30.05 1018 10 16 0.00 0.00

Powered by AerisWeather